Regional Weather Roundup
Issued by NWS

Home | Current Version | Previous Version | Text Only | Print | Product List | Glossary On
Versions: 1 2 3 4 5 6 7 8 9 10 11 12 13 14 15 16 17 18 19 20 21 22 23 24 25 26 27 28 29 30 31 32 33 34 35 36 37 38 39 40 41 42 43 44 45 46 47 48 49 50
643
ASUS44 KJAN 271803
RWRMS

MISSISSIPPI HOURLY WEATHER ROUNDUP
NATIONAL WEATHER SERVICE JACKSON MS
1200 PM CST FRI FEB 27 2015

NOTE: "FAIR: INDICATES FEW OR NO CLOUDS BELOW 12,000 FEET WITH NO
SIGNIFICANT WEATHER AND/OR OBSTRUCTIONS TO VISIBILITY.

MSZ001>002-007>008-010>013-018>021-025>028-034>036-271900-
NORTHWEST MISSISSIPPI

CITY           SKY/WX    TMP DP  RH WIND       PRES   REMARKS
CLARKSDALE     FAIR      28  18  64 N10       30.57F WCI  19
CLEVELAND      MOCLDY    30  22  71 NE13      30.55F WCI  20
GREENWOOD        N/A    N/A N/A N/A MISG      30.53F
GREENVILLE     CLOUDY    30  21  69 NE14      30.54F WCI  19
6HR MIN TEMP:  27; 6HR MAX TEMP:  31;

OLIVE BRANCH   PTSUNNY   28  19  69 NE8       30.56F WCI  20
OXFORD         FAIR      30  18  59 N8        30.54F WCI  23
TUNICA         MOCLDY    30  19  64 NE10      30.57F WCI  21
$$

MSZ003>006-009-014>017-022>024-029>033-037>039-271900-
NORTHEAST MISSISSIPPI

CITY           SKY/WX    TMP DP  RH WIND       PRES   REMARKS
COLUMBUS AFB   SUNNY     35  15  44 N8        30.51F WCI  29
6HR MIN TEMP:  29; 6HR MAX TEMP:  35;

CORINTH        FAIR      34  12  40 NE10      30.53F WCI  26
GOLDN TRIANGLE SUNNY     39  25  56 N12G18    30.50S WCI  32
STARKVILLE     FAIR      36  23  60 N9        30.50F WCI  29
TUPELO         SUNNY     33  16  49 VRB6      30.53F WCI  28
6HR MIN TEMP:  26; 6HR MAX TEMP:  33;

$$

MSZ040-058-271900-
CENTRAL MISSISSIPPI

CITY           SKY/WX    TMP DP  RH WIND       PRES   REMARKS
JACKSON INTL   MOSUNNY   37  24  59 VRB6      30.47F WCI  32
6HR MIN TEMP:  30; 6HR MAX TEMP:  38;

JACKSON HAWKNS MOSUNNY   37  24  59 NE7       30.47F WCI  32
6HR MIN TEMP:  29; 6HR MAX TEMP:  37; 6HR PCP: TRACE;

MERIDIAN KEY   SUNNY     43  26  51 E13       30.44F
6HR MIN TEMP:  30; 6HR MAX TEMP:  43;

MERIDIAN NAS   SUNNY     42  22  44 E8        30.46F
6HR MIN TEMP:  31; 6HR MAX TEMP:  43;

VICKSBURG      CLOUDY    35  25  66 NE10      30.51F WCI  27
6HR MIN TEMP:  28; 6HR MAX TEMP:  35;

$$

MSZ059>079-271900-
SOUTH MISSISSIPPI

CITY           SKY/WX    TMP DP  RH WIND       PRES   REMARKS
BROOKHAVEN     MOCLDY    37  30  75 NE8       30.45F WCI  31
HATTIESBURG    CLOUDY    38  29  70 N10       30.45F WCI  31
6HR MIN TEMP:  34; 6HR MAX TEMP:  39;

MCCOMB         PTSUNNY   40  28  62 NE10      30.41F WCI  33
6HR MIN TEMP:  33; 6HR MAX TEMP:  40;

NATCHEZ        SUNNY     39  27  60 N9        30.43F WCI  33
6HR MIN TEMP:  30; 6HR MAX TEMP:  39;

PINE BELT      CLOUDY    37  27  65 N13       30.44F WCI  29
6HR MIN TEMP:  34; 6HR MAX TEMP:  37;

$$

MSZ080>082-271900-
COASTAL MISSISSIPPI

CITY           SKY/WX    TMP DP  RH WIND       PRES   REMARKS
BILOXI         SUNNY     51  31  46 N12G18    30.36F
6HR MIN TEMP:  33; 6HR MAX TEMP:  51;

PASCAGOULA     SUNNY     52  31  44 N14G20    30.36F
6HR MIN TEMP:  32; 6HR MAX TEMP:  52;

GULFPORT       SUNNY     51  31  46 N12       30.37F
6HR MIN TEMP:  32; 6HR MAX TEMP:  51;

$$



USA.gov is the U.S. government's official web portal to all federal, state and local government web resources and services.